Weather observations for the past three days for
Point Hope, Point Hope Airport
Metric (Imperial)
Date Time (akdt) Wind (kph) Vis. (km) Weather Sky Cond. Temperature (ºC) Relative Humidity Wind Chill (°C) Heat Index (°C) Pressure Precipitation (cm)
Air Dwpt 6 hour altimeter (cm) sea level (mb) 1 hr 3 hr 6 hr
Max. Min.
07 14:56 N 17 16.09 Overcast OVC037 -3.9 -7.2 78% -9 76.78 1023.5
07 13:56 N 19 16.09 Overcast OVC039 -4.4 -8.3 75% -10 76.78 1023.5
07 12:56 N 17 16.09 Overcast OVC041 -3.9 -7.8 75% -9 76.76 1023.3
07 11:56 N 15 16.09 Overcast SCT007 OVC041 -4.4 -8.3 75% -9 76.78 1023.4
07 10:56 N 19 16.09 Overcast OVC007 -6.1 -8.3 85% -12 76.76 1023.4
07 09:56 N 19 16.09 Overcast OVC005 -6.7 -7.8 -6.7 -8.3 92% -13 76.78 1023.5
07 08:56 N 17 16.09 Overcast OVC005 -7.2 -8.9 88% -13 76.78 1023.4
07 07:56 N 15 12.87 Light Snow OVC005 -7.8 -8.9 92% -13 76.78 1023.5
07 06:56 N 15 16.09 Overcast OVC007 -7.8 -8.9 92% -13 76.76 1023.3
07 05:56 N 20 9.66 Light Snow Fog/Mist OVC005 -8.3 -9.4 92% -15 76.76 1023.2
07 04:56 N 20 4.83 Light Snow Fog/Mist OVC005 -7.8 -8.9 92% -15 76.76 1023.2
07 03:56 N 20 8.05 Light Snow Fog/Mist OVC005 -7.8 -8.9 -6.1 -7.8 92% -15 76.76 1023.2
07 02:56 N 20 11.27 Light Snow OVC005 -7.2 -8.3 92% -14 76.73 1022.9
07 01:56 N 19 14.48 Light Snow OVC005 -6.7 -8.3 89% -13 76.71 1022.5
07 00:56 N 19 16.09 Overcast OVC007 -6.7 -7.8 92% -13 76.68 1022.4
06 23:56 N 17 16.09 Overcast OVC005 -6.7 -8.3 89% -13 76.68 1022.3
06 22:56 N 19 16.09 Overcast OVC007 -6.7 -8.3 89% -13 76.66 1022.0
06 21:56 N 20 16.09 Overcast OVC007 -6.1 -7.8 -4.4 -6.1 88% -12 76.66 1021.8
06 20:56 N 22 16.09 Overcast OVC007 -5 -7.8 81% -11 76.63 1021.6
06 19:56 N 26 16.09 Overcast OVC007 -5 -7.8 81% -12 76.63 1021.4
06 18:56 N 20 16.09 Overcast OVC009 -5 -8.3 78% -11 76.61 1021.2
06 17:56 N 15 16.09 Overcast BKN009 OVC014 -5 -7.8 81% -10 76.58 1020.7
06 16:56 N 17 16.09 Mostly Cloudy BKN016 -5 -8.9 74% -10 76.56 1020.4
06 15:56 N 20 16.09 Overcast OVC011 -5 -8.9 -3.9 -6.7 74% -11 76.53 1020.1
06 14:56 N 20 16.09 Overcast OVC011 -5.6 -9.4 75% -12 76.53 1020.0
06 13:56 N 20 16.09 Overcast OVC011 -6.1 -9.4 78% -12 76.5 1019.8
06 12:56 N 20 16.09 Overcast OVC011 -5.6 -9.4 75% -12 76.45 1019.2
06 11:56 N 15 16.09 Overcast OVC013 -5 -9.4 72% -10 76.43 1018.9
06 10:56 N 17 16.09 Overcast OVC015 -5.6 -8.3 82% -11 76.38 1018.2
06 09:56 N 13 16.09 Overcast OVC017 -6.7 -8.3 -6.7 -7.8 89% -12 76.35 1017.8
06 08:56 N 17 14.48 Light Snow OVC010 -7.2 -8.9 88% -13 76.33 1017.5
06 07:56 N 15 14.48 Overcast OVC012 -7.2 -8.9 88% -13 76.3 1017.0
06 06:56 NW 13 14.48 Overcast OVC012 -7.8 -8.9 92% -13 76.28 1016.7
06 05:56 NW 11 14.48 Overcast OVC010 -7.8 -8.9 92% -12 76.25 1016.5
06 04:56 NW 13 14.48 Light Snow FEW010 OVC046 -7.8 -9.4 88% -13 76.25 1016.3
06 03:56 NW 11 11.27 Light Snow FEW029 BKN039 BKN048 -7.8 -9.4 -7.2 -8.3 88% -12 76.23 1016.2
06 02:56 NW 13 14.48 Light Snow OVC048 -7.8 -10 84% -13 76.2 1015.9
06 01:56 NW 15 14.48 Light Snow OVC011 -7.8 -9.4 88% -13 76.2 1015.8
06 00:56 NW 13 14.48 Light Snow OVC047 -7.8 -10 84% -13 76.17 1015.6
05 23:56 NW 13 14.48 Light Snow OVC015 -7.2 -10 81% -12 76.17 1015.4
05 22:56 NW 11 16.09 Overcast BKN013 OVC046 -7.2 -10 81% -12 76.17 1015.4
05 21:56 NW 13 16.09 Overcast BKN015 OVC048 -7.2 -10 -5 -7.2 81% -12 76.15 1015.0
05 20:56 NW 15 14.48 Light Snow OVC013 -6.7 -9.4 81% -12 76.15 1015.0
05 19:56 NW 11 14.48 Light Snow OVC013 -6.7 -9.4 81% -11 76.15 1014.9
05 18:56 NW 15 14.48 Light Snow OVC011 -6.7 -9.4 81% -12 76.12 1014.6
05 17:56 NW 15 14.48 Light Snow OVC009 -6.1 -8.9 81% -11 76.1 1014.5
05 16:56 NW 11 14.48 Light Snow OVC009 -5 -7.8 81% -9 76.1 1014.4
05 15:56 W 11 16.09 Overcast OVC007 -6.1 -8.9 -5.6 -8.3 81% -10 76.1 1014.4
05 14:56 NW 11 16.09 Overcast OVC005 -6.7 -8.9 85% -11 76.1 1014.5
05 13:56 W 15 16.09 Overcast OVC003 -7.2 -8.9 88% -13 76.1 1014.3
05 12:56 W 15 16.09 Overcast OVC003 -7.8 -8.9 92% -13 76.1 0.0
05 11:56 W 11 16.09 Overcast OVC003 -7.8 -8.9 92% -12 76.1 0.0
05 10:56 W 7 16.09 Overcast OVC003 -7.8 -8.9 92% -11 76.1 0.0
05 09:56 W 11 16.09 Overcast OVC005 -7.8 -8.9 -7.8 -8.9 92% -12 76.1 0.0
05 08:56 NW 7 16.09 Overcast OVC005 -7.8 -8.9 92% -11 76.1 0.0
05 07:56 NW 9 8.05 Fog/Mist OVC003 -8.3 -9.4 92% -12 76.1 0.0
05 06:56 W 9 0.40 Freezing Fog OVC003 -8.9 -10 92% -13 76.1 0.0
05 05:56 NW 7 1.21 Fog/Mist OVC003 -8.9 -10 92% -12 76.1 0.0
05 04:56 NW 9 14.48 Overcast OVC003 -7.8 -8.9 92% -12 76.1 0.0
05 03:56 W 7 16.09 Overcast OVC005 -7.8 -8.9 92% -11 76.12 0.0
05 02:56 W 11 16.09 Overcast OVC005 -7.2 -8.3 92% -12 76.15 0.0
05 01:56 NW 9 16.09 Overcast OVC005 -6.7 -8.3 89% -11 76.17 0.0
05 00:56 NW 6 16.09 Overcast OVC005 0 0 0% 76.2 0.0
04 23:56 W 7 16.09 Overcast OVC005 0 0 0% 76.2 0.0
04 22:56 W 17 16.09 Overcast OVC007 0 0 0% 76.23 0.0
04 21:56 SW 15 16.09 Overcast OVC007 0 0 0% 76.23 0.0
04 20:56 SW 19 16.09 Overcast OVC009 0 0 0% 76.23 0.0
04 19:56 SW 15 16.09 A Few Clouds FEW009 0 0 0% 76.25 0.0
04 18:56 SW 22 16.09 Mostly Cloudy BKN009 0 0 0% 76.28 0.0
04 17:56 S 19 16.09 Overcast OVC009 0 0 0% 76.3 0.0
04 16:56 SW 17 16.09 Partly Cloudy SCT009 0 0 0% 76.33 0.0
04 15:56 S 20 14.48 Light Snow BKN007 OVC048 0 0 0% 76.35 0.0
Date Time (akdt) Wind (kph) Vis. (km) Weather Sky Cond. Air Dwpt Max. Min. Relative Humidity Wind Chill (°C) Heat Index (°C) altimeter (cm) sea level (mb) 1 hr 3 hr 6 hr
6 hour
Temperature (ºC) Pressure Precipitation (cm)